Miscellaneous Local Product
Issued by NWS North Platte, NE

Home | Current Version | Previous Version | Text Only | Print | Product List | Glossary On
Versions: 1 2 3 4 5 6 7 8 9 10 11 12 13 14 15 16 17 18 19 20 21 22 23 24 25 26 27 28 29 30 31 32 33 34 35 36 37 38 39 40 41 42 43 44 45 46 47 48 49 50
829
AXUS43 KLBF 241410
MISLBF


WESTERN AND NORTH CENTRAL NEBRASKA HOURLY WEATHER ROUNDUP
NATIONAL WEATHER SERVICE NORTH PLATTE NE
900 AM CDT SAT SEP 24 2016

NOTE: "FAIR" INDICATES FEW OR NO CLOUDS BELOW 12,000 FEET WITH NO
SIGNIFICANT WEATHER AND/OR OBSTRUCTIONS TO VISIBILITY.

NOTE: STATIONS NOT REPORTING VARIABLES SUCH AS SKY/WEATHER OR
PRESSURE ARE PROVIDED BY RAWS AND APRS NETWORKS AND ARE NOT UNDER
NATIONAL WEATHER SERVICE QUALITY CONTROL.

...OBSERVATIONS IN AND NEAR THE EASTERN PANHANDLE OF NEBRASKA...

CITY           SKY/WX    TMP DP  RH WIND       PRES   REMARKS
PINE RIDGE     SUNNY     51  43  74 SW14      29.88R
CHADRON        SUNNY     50  43  77 SW12      29.89R
ALLIANCE       SUNNY     47  41  80 W6        29.92R
SIDNEY         MOSUNNY   44  40  85 SW3       29.98R
CRESCENT LAKE    N/A     49  44  82 NW6         N/A
$$

...OBSERVATIONS IN NORTHERN NEBRASKA AND FAR SOUTHERN SOUTH DAKOTA...

CITY           SKY/WX    TMP DP  RH WIND       PRES   REMARKS
WINNER         CLOUDY    63  51  65 W14       29.85R
VALENTINE      CLOUDY    57  44  62 W12       29.87R
THEDFORD       MOSUNNY   55  48  79 W5        29.91S
AINSWORTH      CLOUDY    59  49  68 W15G21    29.88R
O`NEILL        CLOUDY    71  66  84 SE15      29.87R
ORD            CLOUDY    70  65  84 SE12      29.86R
BROKEN BOW     CLOUDY    60  54  80 NW9       29.89R
VALENTINE NWR    N/A     55  46  71 W9          N/A
BUTTE            N/A     70  65  84 S12         N/A
HALSEY           N/A     56  48  73 W9G16       N/A
EWING            N/A     70  67  90 S7          N/A
$$

...OBSERVATIONS IN SOUTHWEST NEBRASKA AND FAR NORTHEAST COLORADO...

CITY           SKY/WX    TMP DP  RH WIND       PRES   REMARKS
WRAY           FAIR      43  39  87 W7        29.99
HOLYOKE        FAIR      54  45  71 W6        29.98R
IMPERIAL       MOSUNNY   51  42  71 W7        29.98R
OGALLALA       SUNNY     52  44  74 W6        29.95R
NORTH PLATTE   CLOUDY    56  47  71 NW6       29.94R
MCCOOK         CLOUDY    54  47  77 W5        29.96R
LEXINGTON      MOSUNNY   58  49  72 NW9       29.92R
STAPLETON        N/A     55  48  78 CALM        N/A
GOTHENBURG       N/A     55  46  72 NW6         N/A
CALLAWAY         N/A     54  51  89 NW12        N/A
$$

...OBSERVATIONS IN CENTRAL LINCOLN COUNTY AREA...

CITY           SKY/WX    TMP DP  RH WIND       PRES   REMARKS
N.P. AIRPORT   CLOUDY    56  47  71 NW6       29.94R
N.P. DOWNTOWN    N/A     53  47  82 CALM        N/A
N.P. SOUTHEAST   N/A     53  47  79 CALM        N/A
N.P. HILLCREST   N/A     52  48  87 W3          N/A
$$

...SOME OBSERVATIONS FROM AROUND THE REGION...

CITY           SKY/WX    TMP DP  RH WIND       PRES   REMARKS
DENVER         CLOUDY    46  28  49 SE7       30.00R
LARAMIE        CLOUDY    34  30  85 S13       30.01R WCI  25
CHEYENNE       CLOUDY    43  34  70 W8        29.98R
SCOTTSBLUFF    SUNNY     47  45  93 NW6       29.92F
RAPID CITY     CLOUDY    55  44  66 W8        29.78R
BISMARCK       PTSUNNY   63  61  93 E10       29.75R
PIERRE         LGT RAIN  60  54  80 SW15      29.78R
SIOUX FALLS    PTSUNNY   71  66  84 SE20      29.92F
OMAHA          PTSUNNY   74  65  73 SE13      29.96S
GRAND ISLAND   CLOUDY    69  67  93 S14       29.89R
KANSAS CITY    MOSUNNY   76  67  73 S12       30.04R
WICHITA        PTSUNNY   75  70  84 S14       29.96R
OKLAHOMA CITY  MOSUNNY   75  71  87 S13       30.00R
DALLAS         PTSUNNY   80  72  76 S10       30.02R
AMARILLO       CLOUDY    68  62  81 S8        30.01R
DODGE CITY     LGT RAIN  60  51  72 N12       29.94F
HAYS           CLOUDY    70  57  64 W9        29.91S
GOODLAND       SUNNY     50  42  74 NW9       30.00R
$$




USA.gov is the U.S. government's official web portal to all federal, state and local government web resources and services.